Total_Precipitation_Accumulation
0.00 0.00 0.00 0.00 0.00 0.01 0.04 0.10 0.16 0.32 0.37 0.30 0.29 0.33 0.35 0.40 0.61 1.13 0.74 0.43 0.24 0.14 0.10 0.08 0.10 0.10 0.11 0.11 0.11 0.11 0.13 0.16 0.17 0.16 0.14 0.13 0.12 0.12 0.13 0.14 0.18 0.25 0.29 0.28 0.25 0.24 0.25 0.25 0.20
0.00 0.00 0.00 0.00 0.00 0.02 0.08 0.13 0.21 0.30 0.32 0.33 0.34 0.39 0.38 0.31 0.26 0.31 0.41 0.34 0.21 0.15 0.14 0.10 0.10 0.12 0.13 0.14 0.16 0.17 0.18 0.19 0.22 0.22 0.20 0.16 0.13 0.13 0.14 0.15 0.18 0.24 0.28 0.25 0.21 0.18 0.17 0.15 0.11
0.00 0.00 0.00 0.00 0.00 0.02 0.12 0.20 0.26 0.31 0.33 0.36 0.46 0.49 0.50 0.51 0.38 0.40 0.43 0.32 0.22 0.19 0.16 0.11 0.09 0.12 0.16 0.19 0.21 0.23 0.23 0.26 0.27 0.29 0.29 0.23 0.16 0.14 0.18 0.20 0.21 0.22 0.27 0.28 0.23 0.17 0.13 0.10 0.10
0.00 0.00 0.00 0.00 0.00 0.01 0.07 0.20 0.29 0.31 0.35 0.33 0.35 0.50 0.62 0.60 0.51 0.47 0.43 0.36 0.26 0.25 0.25 0.19 0.18 0.18 0.21 0.21 0.23 0.28 0.29 0.32 0.36 0.38 0.35 0.28 0.21 0.19 0.22 0.26 0.28 0.28 0.31 0.36 0.31 0.27 0.19 0.14 0.12
0.00 0.00 0.00 0.00 0.01 0.02 0.09 0.23 0.32 0.30 0.28 0.28 0.34 0.55 0.68 0.75 0.66 0.55 0.49 0.46 0.38 0.37 0.36 0.30 0.26 0.22 0.23 0.22 0.22 0.26 0.30 0.33 0.40 0.44 0.39 0.32 0.25 0.23 0.25 0.31 0.32 0.35 0.37 0.37 0.33 0.28 0.22 0.20 0.20
0.00 0.00 0.00 0.01 0.03 0.05 0.10 0.19 0.26 0.31 0.29 0.27 0.39 0.60 0.90 1.03 0.86 0.74 0.61 0.55 0.45 0.40 0.37 0.30 0.27 0.24 0.29 0.33 0.30 0.29 0.31 0.36 0.43 0.48 0.44 0.35 0.29 0.31 0.36 0.37 0.40 0.43 0.39 0.34 0.32 0.28 0.24 0.26 0.31
0.00 0.00 0.00 0.01 0.04 0.09 0.14 0.22 0.33 0.33 0.37 0.39 0.49 0.68 1.01 1.11 0.87 0.75 0.72 0.64 0.51 0.48 0.45 0.41 0.41 0.37 0.36 0.35 0.32 0.34 0.33 0.36 0.42 0.46 0.49 0.42 0.36 0.43 0.49 0.48 0.48 0.51 0.44 0.38 0.36 0.36 0.31 0.34 0.40
0.00 0.00 0.00 0.01 0.03 0.08 0.16 0.26 0.38 0.43 0.53 0.60 0.71 0.74 1.09 1.25 1.04 0.94 0.87 0.92 0.93 0.99 1.03 0.82 0.76 0.66 0.49 0.38 0.35 0.36 0.36 0.38 0.41 0.42 0.43 0.42 0.42 0.46 0.50 0.46 0.48 0.47 0.40 0.36 0.36 0.37 0.35 0.32 0.31
0.00 0.00 0.00 0.01 0.04 0.10 0.17 0.22 0.26 0.35 0.55 0.66 0.73 0.75 1.03 1.09 1.15 1.29 1.29 1.49 1.47 1.51 1.60 1.27 0.91 0.75 0.74 0.58 0.44 0.45 0.39 0.41 0.41 0.40 0.42 0.49 0.66 0.78 0.77 0.57 0.55 0.50 0.43 0.40 0.40 0.37 0.32 0.27 0.27
0.00 0.00 0.01 0.01 0.04 0.10 0.18 0.25 0.31 0.32 0.49 0.59 0.63 0.69 0.91 1.14 1.28 1.46 1.63 2.21 2.06 1.82 1.75 1.59 1.15 1.18 1.31 1.00 0.80 0.69 0.59 0.57 0.53 0.63 0.61 0.75 1.10 1.18 0.93 0.90 0.72 0.63 0.57 0.52 0.50 0.49 0.42 0.35 0.39
0.00 0.01 0.01 0.04 0.07 0.12 0.18 0.28 0.37 0.46 0.57 0.64 0.68 0.87 1.03 1.31 1.35 1.49 1.75 2.27 2.37 2.01 1.62 1.35 1.25 1.16 1.31 1.29 1.17 1.06 1.01 1.09 1.08 1.07 1.03 1.21 1.30 1.12 0.97 1.15 1.02 0.92 0.81 0.83 0.87 0.71 0.58 0.60 0.69
0.01 0.01 0.03 0.07 0.14 0.18 0.27 0.38 0.46 0.59 0.76 0.86 0.90 0.95 1.14 1.27 1.27 1.53 1.99 2.00 1.98 1.86 1.65 1.54 1.53 1.42 1.42 1.65 1.66 1.57 1.54 1.45 1.33 1.33 1.27 1.48 1.61 1.54 1.56 1.60 1.51 1.56 1.51 1.44 1.28 1.08 0.90 0.81 0.77
0.02 0.03 0.05 0.10 0.21 0.22 0.32 0.45 0.43 0.54 0.62 0.68 0.74 0.84 1.00 1.18 1.39 1.73 2.00 2.10 2.09 2.03 1.81 1.69 1.74 1.72 1.65 1.91 2.07 1.90 1.88 1.70 1.55 1.52 1.53 1.63 1.70 1.77 1.92 1.91 1.99 1.92 1.79 1.60 1.45 1.21 1.19 1.10 0.98
0.02 0.05 0.09 0.11 0.21 0.28 0.25 0.30 0.31 0.44 0.49 0.60 0.63 0.76 0.94 1.12 1.45 1.73 1.93 2.09 2.20 2.32 2.05 1.79 1.78 1.71 1.69 1.82 1.99 2.00 1.92 1.96 1.93 1.86 1.79 1.78 1.91 2.09 2.13 2.14 2.10 1.97 1.79 1.74 1.70 1.54 1.50 1.41 1.32
0.04 0.06 0.13 0.15 0.17 0.25 0.21 0.26 0.32 0.34 0.43 0.49 0.54 0.73 0.98 1.31 1.41 1.60 1.81 2.11 2.34 2.54 2.45 2.16 2.02 1.97 1.94 1.88 1.88 1.87 1.94 2.14 2.11 2.15 2.18 2.01 1.94 2.05 2.14 2.24 2.18 2.07 1.97 1.94 1.84 1.83 1.77 1.64 1.54
0.09 0.08 0.12 0.16 0.18 0.18 0.20 0.37 0.43 0.42 0.39 0.43 0.45 0.56 0.87 1.28 1.23 1.27 1.56 2.05 2.72 3.02 2.89 2.35 1.98 2.12 2.21 2.25 2.22 2.29 2.33 2.46 2.38 2.22 2.30 2.24 2.23 2.15 2.16 2.16 2.07 1.99 1.94 2.10 2.18 2.13 2.08 1.94 1.84
0.12 0.10 0.11 0.13 0.16 0.16 0.19 0.44 0.59 0.54 0.52 0.47 0.51 0.65 0.80 0.92 0.97 1.13 1.48 2.14 2.92 3.56 3.29 2.60 2.28 2.34 2.44 2.52 2.69 2.90 2.98 2.96 2.86 2.68 2.64 2.51 2.54 2.49 2.45 2.50 2.40 2.28 2.32 2.35 2.20 2.25 2.31 2.32 2.18
0.12 0.11 0.17 0.15 0.14 0.16 0.20 0.33 0.52 0.68 0.65 0.65 0.61 0.75 0.78 0.81 0.87 1.07 1.55 2.28 2.98 3.67 3.48 2.97 2.68 2.79 2.76 2.74 2.95 3.11 3.17 3.18 3.22 3.24 3.20 2.99 2.87 2.88 2.96 3.02 2.95 2.75 2.71 2.73 2.75 2.68 2.45 2.28 2.16
0.13 0.16 0.17 0.17 0.15 0.19 0.24 0.33 0.47 0.62 0.58 0.64 0.75 0.83 0.79 0.77 0.85 1.17 1.69 2.36 2.82 2.98 2.96 3.00 2.97 3.00 3.05 3.02 3.07 3.31 3.50 3.53 3.48 3.57 3.61 3.46 3.36 3.40 3.52 3.53 3.48 3.24 3.05 2.93 2.87 2.78 2.59 2.33 2.13
0.17 0.18 0.19 0.21 0.18 0.20 0.30 0.41 0.53 0.63 0.61 0.67 0.79 0.81 0.77 0.77 0.87 1.24 1.65 2.07 2.44 2.74 2.87 2.96 2.90 3.09 3.32 3.63 4.02 4.34 4.57 4.53 4.37 4.28 4.20 4.04 3.92 3.84 3.77 3.76 3.57 3.34 3.20 2.99 2.80 2.72 2.60 2.41 2.25
0.15 0.13 0.17 0.25 0.27 0.24 0.35 0.62 0.69 0.70 0.79 0.85 0.87 0.93 0.95 0.84 0.92 1.20 1.45 1.72 2.03 2.38 2.63 2.79 3.00 3.40 3.83 4.30 4.98 5.44 5.35 5.03 4.88 4.62 4.51 4.27 3.97 3.88 3.87 3.65 3.46 3.26 3.08 2.94 2.75 2.66 2.60 2.41 2.30
0.12 0.09 0.12 0.18 0.23 0.27 0.29 0.64 0.87 0.89 1.06 1.14 1.02 0.96 0.98 0.94 0.96 1.09 1.29 1.52 1.74 2.14 2.54 2.85 3.21 3.72 4.32 4.75 5.19 5.50 5.53 5.32 5.10 4.67 4.31 3.92 3.55 3.32 3.23 3.16 2.97 2.86 2.74 2.62 2.47 2.44 2.40 2.29 2.13
0.08 0.08 0.10 0.13 0.17 0.23 0.28 0.48 0.89 1.08 1.15 1.24 1.11 1.04 0.90 0.82 0.85 0.96 1.08 1.27 1.57 1.96 2.41 2.77 3.11 3.69 4.24 4.75 5.09 5.28 5.38 5.28 4.96 4.33 3.75 3.37 3.05 2.81 2.59 2.41 2.33 2.32 2.25 2.07 1.90 1.87 1.86 1.81 1.76
0.08 0.08 0.11 0.15 0.19 0.29 0.27 0.45 0.98 1.28 1.27 1.20 1.20 1.17 0.98 0.84 0.82 0.86 0.98 1.12 1.43 1.76 2.17 2.47 2.77 3.46 4.11 4.67 5.05 5.26 5.27 5.00 4.43 3.82 3.30 2.97 2.72 2.49 2.28 2.14 1.98 1.88 1.76 1.61 1.45 1.37 1.39 1.45 1.48
0.09 0.12 0.26 0.33 0.37 0.39 0.29 0.47 0.95 1.05 1.05 1.14 1.11 1.05 0.96 0.85 0.79 0.81 0.96 1.04 1.28 1.59 1.87 2.19 2.55 3.02 3.53 3.97 4.23 4.38 4.38 4.16 3.84 3.47 3.04 2.68 2.46 2.24 1.99 1.72 1.56 1.46 1.39 1.31 1.24 1.15 1.13 1.20 1.25
0.07 0.13 0.32 0.44 0.45 0.44 0.49 0.84 1.22 1.08 1.03 1.06 1.06 0.93 0.87 0.85 0.85 0.87 0.98 1.04 1.11 1.31 1.58 1.93 2.26 2.57 2.81 3.00 3.21 3.20 3.15 3.09 2.94 2.62 2.28 2.01 1.75 1.59 1.41 1.22 1.15 1.10 1.08 1.06 1.05 0.99 0.94 0.98 1.09
0.06 0.10 0.13 0.22 0.26 0.48 0.76 1.01 1.36 1.29 1.28 1.13 1.03 0.96 0.89 0.87 0.87 0.90 0.98 0.99 1.07 1.19 1.39 1.60 1.75 1.94 2.00 1.97 1.99 2.05 2.09 2.08 1.97 1.81 1.55 1.27 1.06 0.94 0.85 0.79 0.79 0.73 0.75 0.80 0.84 0.87 0.88 0.91 0.92
0.06 0.08 0.12 0.27 0.40 0.57 0.79 1.21 1.66 1.69 1.53 1.24 1.00 0.88 0.77 0.79 0.88 0.94 0.99 1.05 1.12 1.15 1.32 1.43 1.41 1.39 1.41 1.43 1.42 1.41 1.44 1.46 1.45 1.35 1.21 1.06 0.90 0.76 0.66 0.63 0.61 0.55 0.54 0.57 0.64 0.70 0.76 0.85 0.85
0.10 0.11 0.14 0.25 0.33 0.57 0.92 1.50 1.60 1.73 1.59 1.42 1.29 0.97 0.85 0.85 0.89 0.99 0.98 0.95 0.96 0.95 0.99 1.03 1.06 1.10 1.09 1.07 1.09 1.10 1.07 1.03 1.00 1.03 1.00 0.90 0.78 0.68 0.61 0.54 0.53 0.52 0.49 0.48 0.52 0.55 0.59 0.68 0.72
0.12 0.12 0.17 0.34 0.41 0.46 0.80 1.56 1.47 1.77 1.74 1.53 1.38 1.08 0.99 0.96 0.95 0.93 0.88 0.81 0.79 0.82 0.85 0.84 0.85 0.87 0.90 0.91 0.88 0.90 0.83 0.77 0.76 0.76 0.75 0.69 0.66 0.64 0.61 0.57 0.56 0.52 0.47 0.45 0.46 0.47 0.46 0.51 0.56